THOR ABLESTAR DEB, 538

Orbit data source: Space-Track

THOR ABLESTAR DEB, 538 is space debris in LEO originally from a launch on Thu, 29 Jun 1961 UTC launched from the Air Force Eastern Test Range (AFETR). Debris objects in space refer to the collection of defunct objects orbiting the Earth. Examples of debris include non-operational satellites, rocket bodies, and fragments generated from explosions, collisions, or faulty payload assembly.

Loading next visibility...
Identifier
538, 1961-015FX
Orbit
LEO
Country
Flag of USUS
Related business
Manufacturer
Unknown
Mission
Spacecraft
Bus & Motor
Unknown
Mass
Unknown
Launch date (UTC)
1961-06-29 (65 years ago)
Launch vehicle
Unknown
Launch site
Air Force Eastern Test Range (AFETR)
Object type
Payload
Rocket body
Debris
Shape & HBR
Unknown shape, 0.1 m
Radar Cross Section
Small (<0.1 m²)

Expand to show TLE details & history
Last TLE update: 19 hours ago

TLE from 19 hours ago
0 THOR ABLESTAR DEB
1   538U 61015FX  26012.50269461  .00003140  00000-0  61604-3 0  9991
2   538  67.8054  12.8806 0004368 345.5240  14.5759 14.63913890340807
Epoch: 2026-01-12T12:03Z
TLE epoch observation values (Epoch: 2026-01-12T12:03:52.814Z)
Latitude
0.00002°
Longitude
79.91209°
Altitude
679.806 km
Speed
7.519 km/s
True Right ascension
00h 51m 31s
True Declination
0° 00' 00"
Sunlit
Object was in daylight at epoch
Visualization orbit readout
Latitude
Unknown
Longitude
Unknown
Altitude
Unknown
Speed
Unknown
Apparent Right ascension
Unknown
Apparent Declination
Unknown
Sunlit
N/A
Visualization observer readout
Local Sidereal Time
07:22:21
Azimuth
Unknown
Elevation
Unknown
Doppler factor
Unknown
Orbital elements
Apogee altitude
681.868 km
Perigee altitude
675.703 km
Semi-major axis
7,056.922 km
Eccentricity
0.00044
Inclination
67.8054°
RAAN
12.8806°
Arg. of periapsis
345.524°
True anomaly
14.5885°
Mean anomaly
14.5759°
Eccentric anomaly
14.5822°
Mean motion
3.66117 °/min
Orbital period
98.33 mins
BSTAR
0.00061604
Loading maneuver chart data...
Computing Atmospheric mass density...

Documentation

Showing up to 5 results
|